Starlink 34091

operational
NORAD ID: 63808 Int'l Des: 2025-092 Owner: SPXS Country: US Constellation: starlink
LEOCIRCULAR

Über Starlink 34091

Beschreibung wird geladen...

Live-Position

3D-Globus wird geladen...

Nächste Überflüge

Höhenverlauf

Altitude vs Time

uPlot chart will show altitude changes over time

Zweizeiliger Elementsatz

1 63808U 25092E 26035.27949071 .00034106 00000-0 12420-2 0 9993
2 63808 42.9959 1.3425 0001494 152.7688 207.3242 15.27610660 43556
Epoch: 4. Feb. 2026 • Age: 25 hours

Aktueller Status

Höhe 493.6 km
Geschwindigkeit 7.62 km/s
Subsatellitenpunkt -37.31°S, 15.06°W
Startdatum 4. Mai 2025
Alter 0.7 years
Typ internet

Technische Details

Klassifizierung Payload
Masse 575.00 kg
Trockenmasse 530.00 kg
Gesamtmasse 575.00 kg
Länge 0.30 m
Durchmesser 4.10 m
Spannweite 29.00 m
Form Box + pan
Hersteller SPXS
Bus-Typ Starlink V2MO
Phasenstatus In Orbit
Besitzer/Staat SPXS/US

Große Konstellationen

Loading constellations...